Fort Lauderdale, FL

7:14 AM EDT on May 25, 2017 (GMT -0400)
Fort Lauderdale Executive

Weather History for KFXE - July, 2013

Change the Weather History Date:

Sunday, July 7, 2013

  Actual Average Record
Temperature  
Mean Temperature 84 °F -  
Max Temperature 88 °F 92 °F 98 °F (1980)
Min Temperature 80 °F 73 °F 0 °F (2003)
Cooling Degree Days 18    
Growing Degree Days 34 (Base 50)    
Moisture  
Dew Point 75 °F    
Average Humidity 76    
Maximum Humidity 87    
Minimum Humidity 67    
Precipitation  
Precipitation 0.14 in - - ()
Sea Level Pressure  
Sea Level Pressure 30.08 in    
Wind  
Wind Speed 11 mph (East)    
Max Wind Speed 21 mph    
Max Gust Speed 25 mph    
Visibility 10 miles    
Events Rain    
Averages and records for this station are not official NWS values.
T = Trace of Precipitation, MM = Missing Value Source: NWS Daily Summary

Daily Weather History Graph

Daily Weather History Graph

Search for Another Location

Airport or City:

Trip Planner

Search our weather history database for the weather conditions in past years. The results will help you decide how hot, cold, wet, or windy it might be!

Date:

Astronomy

Jul. 07, 2013 Rise Set
Actual Time 6:34 AM EDT 8:16 PM EDT
Civil Twilight 6:08 AM EDT 8:42 PM EDT
Nautical Twilight 5:37 AM EDT 9:13 PM EDT
Astronomical Twilight 5:04 AM EDT 9:46 PM EDT
Moon 6:03 AM EDT (7/7) 7:46 PM EDT (7/7)
Length of Visible Light 14h 34m
Length of Day
13h 42m
Waning Crescent, 0% of the Moon is Illuminated
Jul 7
Waning Crescent
Jul 8
New
Jul 15
First Quarter
Jul 22
Full
Jul 29
Last Quarter

Hourly Weather History & Observations

Time (EDT) Temp. Heat Index Dew Point Humidity Pressure Visibility Wind Dir Wind Speed Gust Speed Precip Events Conditions
12:53 AM 82.0 °F 87.9 °F 73.9 °F 76% 30.10 in 10.0 mi ESE 9.2 mph - N/A   Clear
1:53 AM 81.0 °F 85.8 °F 73.0 °F 77% 30.09 in 10.0 mi ESE 6.9 mph - N/A   Clear
2:36 AM 80.6 °F 86.2 °F 75.2 °F 84% 30.06 in 10.0 mi East 8.1 mph - 0.00 in Rain Light Rain
2:53 AM 80.1 °F 85.4 °F 75.9 °F 87% 30.07 in 10.0 mi East 5.8 mph - 0.00 in   Scattered Clouds
3:00 AM 80.6 °F 86.2 °F 75.2 °F 84% 30.06 in 10.0 mi East 6.9 mph - N/A   Mostly Cloudy
3:12 AM 80.6 °F 86.2 °F 75.2 °F 84% 30.06 in 10.0 mi East 6.9 mph - N/A   Scattered Clouds
3:53 AM 80.1 °F 84.5 °F 73.9 °F 81% 30.06 in 10.0 mi East 6.9 mph - N/A   Partly Cloudy
4:53 AM 80.1 °F 85.1 °F 75.0 °F 85% 30.06 in 10.0 mi East 10.4 mph - N/A   Scattered Clouds
5:53 AM 80.1 °F 84.5 °F 73.9 °F 81% 30.06 in 10.0 mi East 6.9 mph - N/A   Scattered Clouds
6:53 AM 80.1 °F 84.5 °F 73.9 °F 81% 30.06 in 10.0 mi East 9.2 mph - N/A   Clear
7:53 AM 82.0 °F 88.6 °F 75.0 °F 79% 30.08 in 10.0 mi East 11.5 mph - N/A   Partly Cloudy
8:53 AM 84.0 °F 91.9 °F 75.0 °F 74% 30.10 in 10.0 mi East 16.1 mph - N/A   Scattered Clouds
9:53 AM 86.0 °F 95.1 °F 75.0 °F 70% 30.10 in 10.0 mi East 15.0 mph - N/A   Scattered Clouds
10:53 AM 84.0 °F 93.7 °F 77.0 °F 79% 30.11 in 10.0 mi East 13.8 mph - 0.01 in Rain Light Rain
11:53 AM 82.9 °F 90.8 °F 75.9 °F 79% 30.11 in 10.0 mi ENE 10.4 mph - 0.12 in   Scattered Clouds
12:53 PM 86.0 °F 96.0 °F 75.9 °F 72% 30.10 in 10.0 mi East 17.3 mph - 0.01 in   Scattered Clouds
1:53 PM 87.1 °F 96.3 °F 75.0 °F 67% 30.09 in 10.0 mi ENE 13.8 mph 21.9 mph N/A   Scattered Clouds
2:53 PM 86.0 °F 96.0 °F 75.9 °F 72% 30.08 in 10.0 mi East 17.3 mph - N/A   Scattered Clouds
3:53 PM 87.1 °F 96.3 °F 75.0 °F 67% 30.06 in 10.0 mi East 20.7 mph 25.3 mph N/A   Scattered Clouds
4:53 PM 86.0 °F 95.1 °F 75.0 °F 70% 30.05 in 10.0 mi ENE 19.6 mph 25.3 mph N/A   Scattered Clouds
5:53 PM 84.9 °F 92.1 °F 73.9 °F 69% 30.04 in 10.0 mi East 17.3 mph - N/A   Partly Cloudy
6:53 PM 84.0 °F 91.2 °F 73.9 °F 72% 30.04 in 10.0 mi East 16.1 mph - N/A   Clear
7:53 PM 82.9 °F 88.0 °F 72.0 °F 69% 30.05 in 10.0 mi East 16.1 mph - N/A   Partly Cloudy
8:53 PM 82.9 °F 89.4 °F 73.9 °F 74% 30.07 in 10.0 mi East 12.7 mph - N/A   Scattered Clouds
9:53 PM 82.0 °F 87.9 °F 73.9 °F 76% 30.08 in 10.0 mi East 10.4 mph - N/A   Scattered Clouds
10:53 PM 82.0 °F 87.9 °F 73.9 °F 76% 30.10 in 10.0 mi East 11.5 mph - 0.00 in   Scattered Clouds
11:53 PM 82.0 °F 87.4 °F 73.0 °F 74% 30.11 in 10.0 mi ESE 10.4 mph - N/A   Partly Cloudy